GW2008 Weather Reports


Display with metric or nautical units.
time (UTC)temp
F
wind
direction
speed
MPH
gust
MPH
rain 1hr
in
rain 24hr
in
rain mn
in
humidity
%
barometer
mb
20260507141856 71 243 0.0 1.0 0.00 0.00 0.00 36 988.4
20260507141352 71 245 1.0 1.0 0.00 0.00 0.00 36 988.5
20260507140849 71 226 0.0 0.0 0.00 0.00 0.00 37 988.3
20260507140346 70 237 0.0 1.0 0.00 0.00 0.00 38 988.1
20260507135844 71 260 0.0 1.0 0.00 0.00 0.00 39 988.1
20260507135340 69 213 1.0 1.0 0.00 0.00 0.00 39 988.3
20260507134838 69 213 1.0 1.0 0.00 0.00 0.00 39 988.1
20260507134333 69 213 2.0 2.0 0.00 0.00 0.00 40 988.2
20260507133830 70 220 0.0 0.0 0.00 0.00 0.00 40 988.0
20260507133325 70 222 0.0 0.0 0.00 0.00 0.00 40 988.1
20260507132824 68 222 0.0 0.0 0.00 0.00 0.00 40 988.0
20260507132320 68 222 0.0 0.0 0.00 0.00 0.00 41 988.2
20260507131818 67 223 0.0 0.0 0.00 0.00 0.00 41 988.1
20260507131314 67 223 0.0 0.0 0.00 0.00 0.00 41 988.1
20260507130811 66 223 0.0 0.0 0.00 0.00 0.00 42 987.8
20260507130308 64 223 0.0 0.0 0.00 0.00 0.00 44 987.6
20260507125807 64 223 0.0 0.0 0.00 0.00 0.00 44 987.9
20260507125306 63 225 0.0 0.0 0.00 0.00 0.00 45 987.8
20260507124801 63 227 0.0 0.0 0.00 0.00 0.00 45 987.8
20260507124257 62 224 0.0 0.0 0.00 0.00 0.00 46 987.9
20260507123756 63 226 0.0 0.0 0.00 0.00 0.00 45 987.9
20260507123253 63 224 0.0 0.0 0.00 0.00 0.00 45 987.8
20260507122748 63 224 0.0 0.0 0.00 0.00 0.00 44 988.0
20260507122244 64 224 0.0 0.0 0.00 0.00 0.00 44 987.7
20260507121740 64 224 0.0 0.0 0.00 0.00 0.00 43 987.6
20260507121236 65 224 0.0 0.0 0.00 0.00 0.00 42 988.0
20260507120732 64 224 0.0 0.0 0.00 0.00 0.00 41 987.8
20260507120230 65 224 0.0 0.0 0.00 0.00 0.00 42 987.8
20260507115726 66 226 0.0 0.0 0.00 0.00 0.00 40 987.8
20260507115222 67 229 0.0 0.0 0.00 0.00 0.00 39 987.6
20260507114717 67 230 1.0 1.0 0.00 0.00 0.00 38 987.7
20260507114215 67 238 1.0 2.0 0.00 0.00 0.00 38 987.8
20260507113712 67 236 2.0 3.0 0.00 0.00 0.00 38 987.9
20260507113209 67 245 1.0 1.0 0.00 0.00 0.00 38 987.7
20260507112707 67 234 1.0 1.0 0.00 0.00 0.00 37 987.8
20260507112203 68 240 0.0 1.0 0.00 0.00 0.00 37 987.8
20260507111701 68 236 0.0 0.0 0.00 0.00 0.00 37 987.8
20260507111158 68 234 1.0 1.0 0.00 0.00 0.00 36 988.0
20260507110653 69 228 0.0 0.0 0.00 0.00 0.00 36 987.8
20260507110151 69 231 1.0 1.0 0.00 0.00 0.00 35 987.8
20260507105647 69 254 1.0 2.0 0.00 0.00 0.00 34 987.9
20260507105143 69 234 0.0 1.0 0.00 0.00 0.00 34 987.8
20260507104641 69 224 2.0 2.0 0.00 0.00 0.00 34 988.0
20260507104137 69 252 3.0 3.0 0.00 0.00 0.00 34 988.1
20260507103633 69 230 0.0 0.0 0.00 0.00 0.00 34 987.9
20260507103130 69 237 0.0 1.0 0.00 0.00 0.00 34 988.2
20260507102626 69 252 1.0 1.0 0.00 0.00 0.00 34 988.1
20260507102123 69 261 1.0 1.0 0.00 0.00 0.00 34 988.2
20260507101619 69 261 1.0 1.0 0.00 0.00 0.00 34 988.2
20260507101115 69 237 1.0 1.0 0.00 0.00 0.00 35 988.3
20260507100612 68 258 2.0 2.0 0.00 0.00 0.00 35 988.3
20260507100110 69 256 2.0 2.0 0.00 0.00 0.00 35 988.2
20260507095608 69 236 0.0 1.0 0.00 0.00 0.00 35 988.3
20260507095104 68 228 0.0 0.0 0.00 0.00 0.00 36 988.2
20260507094600 68 225 0.0 0.0 0.00 0.00 0.00 35 988.4
20260507094057 69 231 0.0 0.0 0.00 0.00 0.00 34 988.2
20260507093555 69 247 1.0 2.0 0.00 0.00 0.00 34 988.1
20260507093054 70 258 3.0 3.0 0.00 0.00 0.00 32 988.2
20260507092549 70 235 0.0 1.0 0.00 0.00 0.00 32 988.3
20260507092046 71 233 1.0 1.0 0.00 0.00 0.00 31 988.1
20260507091543 72 255 2.0 3.0 0.00 0.00 0.00 31 988.1
20260507091039 74 227 0.0 1.0 0.00 0.00 0.00 28 988.3
20260507090535 74 233 1.0 1.0 0.00 0.00 0.00 29 988.3
20260507090032 74 232 3.0 3.0 0.00 0.00 0.00 28 988.2
20260507085529 73 226 2.0 2.0 0.00 0.00 0.00 29 988.1
20260507085026 71 231 2.0 2.0 0.00 0.00 0.00 30 988.3
20260507084522 70 233 1.0 2.0 0.00 0.00 0.00 32 988.2
20260507084020 70 226 0.0 1.0 0.00 0.00 0.00 32 988.3
20260507083516 71 226 0.0 0.0 0.00 0.00 0.00 32 988.1
20260507083013 71 228 0.0 1.0 0.00 0.00 0.00 31 988.3
20260507082509 71 230 1.0 1.0 0.00 0.00 0.00 32 988.4
20260507082005 70 249 2.0 2.0 0.00 0.00 0.00 32 988.6
20260507081502 70 248 2.0 2.0 0.00 0.00 0.00 32 988.5
20260507080959 71 248 1.0 2.0 0.00 0.00 0.00 32 988.4
20260507080454 71 227 0.0 1.0 0.00 0.00 0.00 32 988.5
20260507075950 71 227 0.0 0.0 0.00 0.00 0.00 31 988.5
20260507075446 71 228 0.0 0.0 0.00 0.00 0.00 31 988.3
20260507074943 71 226 0.0 0.0 0.00 0.00 0.00 31 988.5
20260507074440 72 226 0.0 0.0 0.00 0.00 0.00 31 988.5
20260507073938 72 229 0.0 0.0 0.00 0.00 0.00 31 988.5
20260507073434 72 227 1.0 2.0 0.00 0.00 0.00 31 988.3
20260507072931 72 226 0.0 1.0 0.00 0.00 0.00 31 988.5
20260507072428 72 227 1.0 1.0 0.00 0.00 0.00 31 988.5
20260507071920 72 223 1.0 1.0 0.00 0.00 0.00 31 988.6
20260507071417 72 226 0.0 1.0 0.00 0.00 0.00 32 988.6
20260507070913 72 258 2.0 3.0 0.00 0.00 0.00 32 988.5
20260507070411 71 227 0.0 0.0 0.00 0.00 0.00 33 988.6
20260507065907 71 224 0.0 0.0 0.00 0.00 0.00 33 988.6
20260507065404 71 229 1.0 1.0 0.00 0.00 0.00 33 988.5
20260507064901 72 229 2.0 2.0 0.00 0.00 0.00 33 988.5
20260507064359 72 259 3.0 3.0 0.00 0.00 0.00 33 988.8
20260507063857 72 231 2.0 3.0 0.00 0.00 0.00 33 988.7
20260507063354 72 236 2.0 2.0 0.00 0.00 0.00 33 988.6
20260507062851 72 240 2.0 2.0 0.00 0.00 0.00 33 988.6
20260507062347 72 231 0.0 0.0 0.00 0.00 0.00 33 988.7
20260507061845 73 223 1.0 1.0 0.00 0.00 0.00 33 988.5
20260507061343 73 228 0.0 1.0 0.00 0.00 0.00 33 988.5
20260507060841 73 254 2.0 3.0 0.00 0.00 0.00 33 988.5
20260507060338 73 253 3.0 3.0 0.00 0.00 0.00 32 988.4
20260507055835 73 229 2.0 2.0 0.00 0.00 0.00 32 988.5
20260507055329 74 227 1.0 1.0 0.00 0.00 0.00 31 988.7
20260507054827 74 232 1.0 1.0 0.00 0.00 0.00 31 988.7
20260507054322 74 226 0.0 0.0 0.00 0.00 0.00 31 988.5
20260507053820 74 250 0.0 2.0 0.00 0.00 0.00 30 988.6
20260507053318 74 226 1.0 1.0 0.00 0.00 0.00 30 988.4
20260507052816 75 235 1.0 1.0 0.00 0.00 0.00 30 988.6
20260507052313 75 226 0.0 0.0 0.00 0.00 0.00 30 988.3
20260507051811 75 229 0.0 0.0 0.00 0.00 0.00 30 988.3
20260507051308 76 228 2.0 2.0 0.00 0.00 0.00 30 988.4
20260507050804 78 226 0.0 1.0 0.00 0.00 0.00 28 988.3
20260507050301 78 227 3.0 5.0 0.00 0.00 0.00 28 988.3
20260507045758 78 226 2.0 2.0 0.00 0.00 0.00 28 988.4
20260507045254 78 221 3.0 3.0 0.00 0.00 0.00 28 988.2
20260507044751 78 219 1.0 1.0 0.00 0.00 0.00 28 988.3
20260507044248 77 220 3.0 3.0 0.00 0.00 0.00 29 988.1
20260507043744 77 222 0.0 0.0 0.00 0.00 0.00 29 988.2
20260507043241 78 220 0.0 0.0 0.00 0.00 0.00 28 988.1
20260507042737 78 231 5.0 6.0 0.00 0.00 0.00 28 988.0
20260507042232 78 223 1.0 2.0 0.00 0.00 0.00 28 988.0
20260507041730 78 235 5.0 6.0 0.00 0.00 0.00 28 988.0
20260507041226 79 218 3.0 3.0 0.00 0.00 0.00 28 987.8
20260507040724 78 222 3.0 5.0 0.00 0.00 0.00 28 987.9
20260507040219 78 222 3.0 5.0 0.00 0.00 0.00 28 987.7
20260507035715 78 231 3.0 3.0 0.00 0.00 0.00 29 987.8
20260507035211 78 230 1.0 1.0 0.00 0.00 0.00 30 987.9
20260507034708 78 226 3.0 3.0 0.00 0.00 0.00 30 987.8
20260507034206 78 220 3.0 3.0 0.00 0.00 0.00 30 987.8
20260507033704 79 221 2.0 2.0 0.00 0.00 0.00 29 987.4
20260507033201 79 220 1.0 1.0 0.00 0.00 0.00 29 987.5
20260507032659 79 225 0.0 1.0 0.00 0.00 0.00 29 987.5
20260507032154 79 226 0.0 0.0 0.00 0.00 0.00 29 987.4
20260507031651 79 231 2.0 2.0 0.00 0.00 0.00 28 987.2
20260507031148 79 229 1.0 2.0 0.00 0.00 0.00 28 987.2
20260507030644 80 249 2.0 3.0 0.00 0.00 0.00 28 986.7
20260507030142 80 228 1.0 2.0 0.00 0.00 0.00 28 987.2
20260507025639 80 237 3.0 6.0 0.00 0.00 0.00 27 987.1
20260507025136 80 225 1.0 1.0 0.00 0.00 0.00 27 987.0
20260507024634 80 228 2.0 3.0 0.00 0.00 0.00 27 986.8
20260507024131 80 222 0.0 1.0 0.00 0.00 0.00 27 986.8
20260507023626 81 227 0.0 1.0 0.00 0.00 0.00 27 986.8
20260507023124 81 220 3.0 3.0 0.00 0.00 0.00 26 986.4
20260507022621 81 225 2.0 2.0 0.00 0.00 0.00 26 986.7
20260507022116 81 225 0.0 1.0 0.00 0.00 0.00 26 986.7
20260507021613 82 219 2.0 2.0 0.00 0.00 0.00 26 986.9
20260507021109 82 222 4.0 5.0 0.00 0.00 0.00 26 986.7
20260507020607 82 223 4.0 5.0 0.00 0.00 0.00 26 986.4
20260507020103 82 209 4.0 6.0 0.00 0.00 0.00 26 986.5
20260507015602 82 245 2.0 5.0 0.00 0.00 0.00 26 986.6
20260507015059 83 234 2.0 2.0 0.00 0.00 0.00 26 986.9
20260507014555 82 223 3.0 3.0 0.00 0.00 0.00 26 986.7
20260507014045 83 220 3.0 3.0 0.00 0.00 0.00 26 986.6
20260507013542 83 225 1.0 1.0 0.00 0.00 0.00 26 986.7
20260507013039 83 219 5.0 6.0 0.00 0.00 0.00 26 986.7
20260507012536 83 224 3.0 3.0 0.00 0.00 0.00 26 986.7
20260507012027 83 217 4.0 5.0 0.00 0.00 0.00 26 986.8
20260507011524 83 224 4.0 6.0 0.00 0.00 0.00 25 986.6
20260507011020 84 216 5.0 6.0 0.00 0.00 0.00 25 986.7
20260507010515 84 218 2.0 3.0 0.00 0.00 0.00 25 986.5
20260507010011 83 221 1.0 1.0 0.00 0.00 0.00 26 986.7
20260507005509 84 245 5.0 7.0 0.00 0.00 0.00 25 986.6
20260507005005 83 228 3.0 5.0 0.00 0.00 0.00 25 986.6
20260507004502 84 219 4.0 7.0 0.00 0.00 0.00 26 986.6
20260507004000 84 227 0.0 1.0 0.00 0.00 0.00 25 986.9
20260507003455 83 224 3.0 5.0 0.00 0.00 0.00 26 986.7
20260507002950 84 227 2.0 2.0 0.00 0.00 0.00 26 986.5
20260507002447 84 254 3.0 3.0 0.00 0.00 0.00 26 986.6
20260507001944 84 219 2.0 2.0 0.00 0.00 0.00 26 986.6
20260507001440 86 259 1.0 2.0 0.00 0.00 0.00 25 986.8
20260507000938 84 255 1.0 2.0 0.00 0.00 0.00 25 986.6
20260507000435 84 275 5.0 6.0 0.00 0.00 0.00 26 986.7
20260506235929 84 253 3.0 5.0 0.00 0.00 0.00 26 986.7
20260506235427 84 288 3.0 3.0 0.00 0.00 0.00 26 986.8
20260506234921 85 257 2.0 2.0 0.00 0.00 0.00 25 986.6
20260506234420 85 233 2.0 2.0 0.00 0.00 0.00 25 986.8
20260506233917 84 234 2.0 2.0 0.00 0.00 0.00 26 987.0
20260506233414 85 253 1.0 2.0 0.00 0.00 0.00 26 986.8
20260506232910 83 230 3.0 3.0 0.00 0.00 0.00 27 986.9
20260506232406 83 219 0.0 0.0 0.00 0.00 0.00 26 986.9
20260506231902 85 230 2.0 2.0 0.00 0.00 0.00 26 987.1
20260506231400 83 239 2.0 2.0 0.00 0.00 0.00 26 987.0
20260506230857 84 262 4.0 6.0 0.00 0.00 0.00 26 987.2
20260506230354 84 237 1.0 1.0 0.00 0.00 0.00 26 987.1
20260506225850 83 260 4.0 7.0 0.00 0.00 0.00 27 987.2
20260506225348 83 234 3.0 5.0 0.00 0.00 0.00 27 987.3
20260506224844 84 232 1.0 1.0 0.00 0.00 0.00 26 987.4
20260506224342 85 266 3.0 3.0 0.00 0.00 0.00 25 987.2
20260506223838 84 258 2.0 3.0 0.00 0.00 0.00 26 987.3
20260506223333 84 222 5.0 8.0 0.00 0.00 0.00 28 987.3
20260506222831 84 239 2.0 3.0 0.00 0.00 0.00 26 987.4
20260506222326 84 233 3.0 3.0 0.00 0.00 0.00 26 987.5
20260506221824 83 281 5.0 6.0 0.00 0.00 0.00 26 987.5
20260506221321 84 249 4.0 6.0 0.00 0.00 0.00 26 987.6
20260506220819 83 299 2.0 3.0 0.00 0.00 0.00 27 987.6
20260506220314 83 231 3.0 3.0 0.00 0.00 0.00 26 987.8
20260506215810 82 42 0.0 0.0 0.00 0.00 0.00 27 987.8
20260506215306 83 78 2.0 2.0 0.00 0.00 0.00 26 988.0
20260506214803 82 286 5.0 5.0 0.00 0.00 0.00 27 988.0
20260506214300 83 264 5.0 9.0 0.00 0.00 0.00 26 988.0
20260506213758 82 251 0.0 0.0 0.00 0.00 0.00 26 988.3
20260506213254 82 130 2.0 3.0 0.00 0.00 0.00 26 988.3
20260506212752 82 34 3.0 3.0 0.00 0.00 0.00 27 988.6
20260506212248 83 276 3.0 5.0 0.00 0.00 0.00 26 988.5
20260506211743 83 359 3.0 3.0 0.00 0.00 0.00 26 988.6
20260506211239 82 199 1.0 1.0 0.00 0.00 0.00 26 988.6
20260506210736 80 104 5.0 6.0 0.00 0.00 0.00 26 988.5
20260506210233 81 216 0.0 1.0 0.00 0.00 0.00 27 988.8
20260506205730 81 222 3.0 5.0 0.00 0.00 0.00 26 988.7
20260506205226 82 254 2.0 3.0 0.00 0.00 0.00 26 989.0
20260506204718 81 225 0.0 0.0 0.00 0.00 0.00 27 989.2
20260506204215 83 232 3.0 3.0 0.00 0.00 0.00 26 989.0
20260506203713 82 213 1.0 1.0 0.00 0.00 0.00 26 989.1
20260506203209 82 298 6.0 7.0 0.00 0.00 0.00 27 989.0
20260506202708 81 201 4.0 6.0 0.00 0.00 0.00 26 989.1
20260506202203 79 259 3.0 3.0 0.00 0.00 0.00 27 989.3
20260506201701 79 85 2.0 2.0 0.00 0.00 0.00 29 989.4
20260506201156 80 336 5.0 6.0 0.00 0.00 0.00 28 989.3
20260506200654 80 297 3.0 3.0 0.00 0.00 0.00 27 989.3
20260506200150 79 282 2.0 3.0 0.00 0.00 0.00 29 989.5
20260506195646 80 329 5.0 5.0 0.00 0.00 0.00 28 989.5
20260506195142 79 313 3.0 3.0 0.00 0.00 0.00 28 989.6
20260506194635 80 222 2.0 3.0 0.00 0.00 0.00 28 989.6
20260506194131 78 2 3.0 3.0 0.00 0.00 0.00 29 989.6
20260506193629 78 305 5.0 5.0 0.00 0.00 0.00 28 989.7
20260506193126 78 222 2.0 3.0 0.00 0.00 0.00 29 989.7
20260506192623 78 320 4.0 5.0 0.00 0.00 0.00 29 989.9
20260506192119 79 229 5.0 7.0 0.00 0.00 0.00 28 990.0
20260506191615 79 230 5.0 6.0 0.00 0.00 0.00 28 989.7
20260506191110 79 244 4.0 6.0 0.00 0.00 0.00 28 989.8
20260506190603 78 240 2.0 2.0 0.00 0.00 0.00 28 989.8
20260506190059 78 222 7.0 9.0 0.00 0.00 0.00 29 989.9
20260506185556 79 257 2.0 2.0 0.00 0.00 0.00 29 990.0
20260506185053 80 216 1.0 1.0 0.00 0.00 0.00 29 990.0
20260506184551 78 210 0.0 1.0 0.00 0.00 0.00 29 990.2
20260506184048 78 214 0.0 1.0 0.00 0.00 0.00 28 990.3
20260506183544 77 208 0.0 0.0 0.00 0.00 0.00 30 990.5
20260506183040 78 202 3.0 3.0 0.00 0.00 0.00 30 990.3
20260506182538 78 267 4.0 5.0 0.00 0.00 0.00 30 990.6
20260506182035 77 221 3.0 5.0 0.00 0.00 0.00 30 990.6
20260506181533 78 211 5.0 7.0 0.00 0.00 0.00 32 990.6
20260506181030 77 197 0.0 0.0 0.00 0.00 0.00 33 990.7
20260506180526 76 226 3.0 3.0 0.00 0.00 0.00 33 990.6
20260506180023 77 221 0.0 0.0 0.00 0.00 0.00 34 990.8
20260506175519 76 230 2.0 2.0 0.00 0.00 0.00 34 990.8
20260506175016 76 187 3.0 5.0 0.00 0.00 0.00 34 990.7
20260506174515 77 250 1.0 2.0 0.00 0.00 0.00 33 990.7
20260506174010 76 242 1.0 2.0 0.00 0.00 0.00 33 990.7
20260506173508 76 232 5.0 6.0 0.00 0.00 0.00 35 990.6
20260506173005 75 250 5.0 7.0 0.00 0.00 0.00 35 990.8
20260506172502 75 230 3.0 3.0 0.00 0.00 0.00 35 990.6
20260506171958 75 220 3.0 3.0 0.00 0.00 0.00 35 990.8
20260506171455 74 255 3.0 3.0 0.00 0.00 0.00 35 990.7
20260506170953 74 227 2.0 5.0 0.00 0.00 0.00 36 990.8
20260506170449 73 234 1.0 2.0 0.00 0.00 0.00 37 990.8
20260506165942 74 220 5.0 7.0 0.00 0.00 0.00 36 990.6
20260506165440 74 220 1.0 1.0 0.00 0.00 0.00 36 990.6
20260506164935 74 281 4.0 5.0 0.00 0.00 0.00 36 990.9
20260506164432 73 224 1.0 1.0 0.00 0.00 0.00 36 990.6
20260506163925 73 234 3.0 5.0 0.00 0.00 0.00 37 990.7
20260506163419 73 225 5.0 6.0 0.00 0.00 0.00 37 990.7
20260506162914 73 229 3.0 5.0 0.00 0.00 0.00 37 990.7
20260506162412 72 223 4.0 6.0 0.00 0.00 0.00 39 990.6
20260506161909 71 223 3.0 5.0 0.00 0.00 0.00 39 990.5
20260506161408 71 218 2.0 3.0 0.00 0.00 0.00 39 990.6
20260506160905 71 224 5.0 6.0 0.00 0.00 0.00 39 990.6
20260506160401 71 226 2.0 2.0 0.00 0.00 0.00 39 990.6
20260506155900 70 237 5.0 7.0 0.00 0.00 0.00 39 990.5
20260506155356 70 249 5.0 6.0 0.00 0.00 0.00 39 990.5
20260506153513 69 275 3.0 3.0 0.00 0.00 0.00 41 990.7
20260506153011 69 221 4.0 6.0 0.00 0.00 0.00 42 990.5
20260506152508 68 224 3.0 3.0 0.00 0.00 0.00 42 990.8
20260506152006 67 253 5.0 7.0 0.00 0.00 0.00 43 990.6
20260506151503 67 241 2.0 3.0 0.00 0.00 0.00 43 990.7
20260506151000 67 257 6.0 7.0 0.00 0.00 0.00 43 990.7
20260506150456 66 223 1.0 1.0 0.00 0.00 0.00 43 990.6
20260506145953 66 226 1.0 2.0 0.00 0.00 0.00 44 990.5
20260506145449 65 225 4.0 5.0 0.00 0.00 0.00 44 990.6
20260506144947 65 249 5.0 7.0 0.00 0.00 0.00 44 990.5
20260506144444 65 229 1.0 2.0 0.00 0.00 0.00 44 990.5
20260506143942 65 264 3.0 5.0 0.00 0.00 0.00 44 990.5
20260506143438 65 221 2.0 3.0 0.00 0.00 0.00 44 990.4
20260506142937 64 229 2.0 2.0 0.00 0.00 0.00 45 990.3
20260506142435 65 259 5.0 6.0 0.00 0.00 0.00 44 990.4